User: anonymous   Login
Location: Muenchen
(48.1800°N, 11.5800°E)
Time: 20:57:30
(UTC+01:00)
Language:

Cosmos 2233 Rocket - Orbit

View from above orbital plane
View from above orbital plane
View from above satellite
View from above satellite

Ground track
Ground track

The orbit data is extracted from the following two-line orbital elements,

1 22488U 93008B   14304.44072464  .00000017  00000-0  18101-5 0  9834
2 22488 082.9439 072.6122 0025773 037.7098 022.4631 13.77636072 92112
Epoch (UTC): 31 October 2014 10:34:38
Eccentricity: 0.0025773
inclination: 82.9439°
perigee height: 953 km
apogee height: 991 km
right ascension of ascending node: 72.6122°
argument of perigee: 37.7098°
revolutions per day: 13.77636072
mean anomaly at epoch: 22.4631°
orbit number at epoch: 9211

The dashed part of the orbit path shows where the satellite is in the earth's shadow,  

DLR